Flag for U.S.A. Weather past 2 weeks in Lexington, Virginia, U.S.A.

Now
66 °F

Sunny.


Feels Like: 66 °F
Forecast: 64 / 86 °F
Wind: 9 mph from Northwest

Location: Hot Springs / Ingalls

Current Time: Jul 26, 2014 at 11:34:22 AM

Latest Report: Jul 26, 2014 at 10:55 AM


Visibility: 10 mi

Pressure: 30.17 "Hg

Humidity: 70%

Dew point: 56 °F

Location of LexingtonLocation

Historic Weather in Lexington — Graph

°F

Lexington temperature yesterday

Maximum temperature yesterday: 71 °F (at 4:35 PM)
Minimum temperature yesterday: 55 °F (at 3:15 AM)
Average temperature yesterday: 61 °F

Past Weeks' High & Low Weather Summary

 TemperatureHumidityPressure
High80 °F (Jul 23, 3:15 PM)96% (Jul 19, 10:55 PM)30.38 "Hg (Jul 19, 10:55 PM)
Low49 °F (Jul 17, 6:15 AM)39% (Jul 17, 5:15 PM)29.94 "Hg (Jul 15, 3:55 PM)
Average63 °F80%30.20 "Hg
* Reported Jul 11 10:15 AM — Jul 26 10:35 AM, Lexington, Weather by CustomWeather, © 2014

Note: Actual official high and low records may vary slightly from our data, if they occured in-between our weather recording intervals... More about our weather records

Advertising

Lexington weather history for previous 24 hours

 ConditionsComfort  
Time TempWeatherWind HumidityBarometerVisibility
10:35 AM
Jul 26
65 °FSunny.9 mph73%30.17 "Hg10 mi
10:00 AM62 °FBroken clouds.13 mph79%30.17 "Hg10 mi
9:35 AM61 °FScattered clouds.9 mph85%30.18 "Hg10 mi
9:15 AM60 °FSunny.10 mph87%30.17 "Hg10 mi
8:55 AM60 °FSunny.12 mph87%30.17 "Hg10 mi
8:35 AM60 °FSunny.12 mph86%30.17 "Hg10 mi
8:15 AM61 °FSunny.10 mph83%30.17 "Hg10 mi
7:55 AM61 °FSunny.10 mph84%30.16 "Hg10 mi
7:35 AM60 °FScattered clouds.12 mph89%30.15 "Hg10 mi
7:15 AM60 °FClear.12 mph88%30.15 "Hg10 mi
6:55 AM60 °FClear.12 mph93%30.15 "Hg10 mi
6:35 AM60 °FPassing clouds.10 mph95%30.15 "Hg7 mi
5:55 AM60 °FFog.9 mph95%30.14 "Hg3 mi
5:35 AM60 °FFog.12 mph96%30.14 "Hg3 mi
5:15 AM61 °FFog.10 mph95%30.14 "Hg1 mi
4:55 AM61 °FFog.9 mph95%30.14 "Hg0 mi
4:35 AM61 °FFog.10 mph94%30.14 "Hg0 mi
4:15 AM61 °FFog.9 mph94%30.14 "Hg0 mi
3:55 AM62 °FFog.10 mph94%30.14 "Hg3 mi
3:35 AM62 °FFog.9 mph94%30.14 "Hg3 mi
3:15 AM62 °FFog.8 mph94%30.14 "Hg4 mi
2:55 AM62 °FFog.9 mph93%30.15 "Hg5 mi
2:35 AM62 °FPassing clouds.9 mph93%30.15 "Hg7 mi
2:15 AM62 °FFog.6 mph94%30.15 "Hg5 mi
1:55 AM62 °FFog.7 mph94%30.16 "Hg5 mi
1:15 AM61 °FFog.8 mph94%30.17 "Hg5 mi
12:55 AM61 °FFog.7 mph94%30.17 "Hg5 mi
12:35 AM61 °FFog.9 mph94%30.17 "Hg5 mi
12:15 AM61 °FPassing clouds.10 mph94%30.17 "Hg7 mi
11:55 PM
Jul 25
61 °FClear.8 mph93%30.17 "Hg7 mi
11:35 PM61 °FPassing clouds.8 mph93%30.17 "Hg7 mi
11:00 PM61 °FPassing clouds.8 mph93%30.17 "Hg10 mi
10:35 PM62 °FClear.10 mph90%30.17 "Hg10 mi
10:15 PM62 °FClear.10 mph90%30.17 "Hg10 mi
9:55 PM62 °FClear.8 mph88%30.17 "Hg10 mi
9:35 PM62 °FClear.10 mph86%30.17 "Hg10 mi
9:15 PM62 °FSunny.8 mph84%30.17 "Hg10 mi
8:55 PM62 °FSunny.9 mph84%30.17 "Hg10 mi
8:35 PM63 °FScattered clouds.7 mph83%30.17 "Hg10 mi
7:55 PM65 °FScattered clouds.7 mph78%30.18 "Hg10 mi
7:35 PM65 °FScattered clouds.8 mph75%30.18 "Hg10 mi
7:15 PM66 °FBroken clouds.7 mph73%30.18 "Hg10 mi
6:55 PM68 °FMostly cloudy.6 mph70%30.17 "Hg10 mi
6:35 PM67 °FBroken clouds.3 mph71%30.16 "Hg10 mi
6:15 PM67 °FBroken clouds.No wind71%30.16 "Hg10 mi
5:55 PM68 °FBroken clouds.8 mph68%30.16 "Hg10 mi
5:35 PM68 °FBroken clouds.7 mph66%30.15 "Hg10 mi
5:15 PM68 °FBroken clouds.6 mph56%30.16 "Hg10 mi
4:55 PM71 °FPartly sunny.5 mph52%30.16 "Hg10 mi
4:35 PM71 °FScattered clouds.9 mph53%30.16 "Hg10 mi
4:15 PM71 °FScattered clouds.6 mph51%30.16 "Hg10 mi
3:55 PM71 °FScattered clouds.8 mph52%30.16 "Hg10 mi
3:35 PM68 °FPartly sunny.7 mph64%30.16 "Hg10 mi
3:15 PM67 °FPartly sunny.6 mph62%30.17 "Hg10 mi
2:55 PM69 °FCloudy.10 mph55%30.17 "Hg10 mi
2:35 PM67 °FMostly cloudy.3 mph64%30.18 "Hg10 mi
2:15 PM67 °FBroken clouds.3 mph58%30.17 "Hg10 mi
1:50 PM65 °FMostly cloudy.5 mph68%30.18 "Hg10 mi
1:35 PM65 °FPartly sunny.5 mph69%30.18 "Hg10 mi
1:15 PM67 °FScattered clouds.6 mph59%30.19 "Hg10 mi
12:55 PM65 °FBroken clouds.5 mph68%30.20 "Hg10 mi
12:35 PM64 °FBroken clouds.3 mph73%30.20 "Hg10 mi
12:15 PM62 °FMostly cloudy.3 mph74%30.21 "Hg10 mi
11:55 AM62 °FMostly cloudy.No wind76%30.20 "Hg10 mi
11:15 AM59 °FLow clouds.No wind85%30.21 "Hg10 mi
Weather by CustomWeather, © 2014

See weather overviewHow to use our weather pages